Time,TemperatureF,DewpointF,PressureIn,WindDirection,WindDirectionDegrees,WindSpeedMPH,WindSpeedGustMPH,Humidity,HourlyPrecipIn,Conditions,Clouds,dailyrainin,SoftwareType,DateUTC
2013-08-02 00:03:00,56.8,51.4,29.89,South,190,0.0,1.0,82,0.00,,,0.00,meteohub,2013-08-02 07:03:00,
2013-08-02 00:08:00,56.7,51.3,29.89,South,190,0.0,1.0,82,0.00,,,0.00,meteohub,2013-08-02 07:08:00,
2013-08-02 00:13:00,56.5,51.4,29.89,South,190,0.0,1.0,83,0.00,,,0.00,meteohub,2013-08-02 07:13:00,
2013-08-02 00:18:00,56.3,51.3,29.89,South,190,0.0,1.0,83,0.00,,,0.00,meteohub,2013-08-02 07:18:00,
2013-08-02 00:23:00,56.1,51.1,29.89,South,190,0.0,1.0,83,0.00,,,0.00,meteohub,2013-08-02 07:23:00,
2013-08-02 00:28:00,55.8,50.7,29.89,South,190,0.0,1.0,83,0.00,,,0.00,meteohub,2013-08-02 07:28:00,
2013-08-02 00:34:00,55.6,50.9,29.89,South,190,0.0,1.0,84,0.00,,,0.00,meteohub,2013-08-02 07:34:00,
2013-08-02 00:39:00,55.2,50.5,29.89,South,190,0.0,1.0,84,0.00,,,0.00,meteohub,2013-08-02 07:39:00,
2013-08-02 00:44:00,54.9,50.2,29.89,South,190,0.0,1.0,84,0.00,,,0.00,meteohub,2013-08-02 07:44:00,
2013-08-02 00:49:00,54.7,50.5,29.89,South,190,0.0,0.0,86,0.00,,,0.00,meteohub,2013-08-02 07:49:00,
2013-08-02 00:54:00,54.9,50.7,29.89,South,190,0.0,0.0,86,0.00,,,0.00,meteohub,2013-08-02 07:54:00,
2013-08-02 00:59:00,54.9,50.7,29.89,South,190,0.0,0.0,86,0.00,,,0.00,meteohub,2013-08-02 07:59:00,
2013-08-02 01:04:00,54.9,50.4,29.89,NW,322,0.0,1.0,85,0.00,,,0.00,meteohub,2013-08-02 08:04:00,
2013-08-02 01:09:00,54.7,50.2,29.89,NW,322,0.0,2.0,85,0.00,,,0.00,meteohub,2013-08-02 08:09:00,
2013-08-02 01:14:00,54.5,50.0,29.89,NW,322,0.0,2.0,85,0.00,,,0.00,meteohub,2013-08-02 08:14:00,
2013-08-02 01:19:00,54.3,50.2,29.89,NW,322,0.0,1.0,86,0.00,,,0.00,meteohub,2013-08-02 08:19:00,
2013-08-02 01:24:00,54.1,50.0,29.89,NW,322,0.0,1.0,86,0.00,,,0.00,meteohub,2013-08-02 08:24:00,
2013-08-02 01:29:00,54.1,50.0,29.89,NW,322,0.0,1.0,86,0.00,,,0.00,meteohub,2013-08-02 08:29:00,
2013-08-02 01:34:00,54.0,49.8,29.89,NW,322,0.0,1.0,86,0.00,,,0.00,meteohub,2013-08-02 08:34:00,
2013-08-02 01:39:00,53.8,49.6,29.88,NW,322,0.0,1.0,86,0.00,,,0.00,meteohub,2013-08-02 08:39:00,
2013-08-02 01:44:00,53.2,49.1,29.88,NW,322,0.0,1.0,86,0.00,,,0.00,meteohub,2013-08-02 08:44:00,
2013-08-02 01:50:00,53.1,49.6,29.88,NW,321,0.0,1.0,88,0.00,,,0.00,meteohub,2013-08-02 08:50:00,
2013-08-02 01:55:00,52.9,49.5,29.88,NW,321,0.0,0.0,88,0.00,,,0.00,meteohub,2013-08-02 08:55:00,
2013-08-02 02:02:00,52.7,49.3,29.88,NW,321,0.0,0.0,88,0.00,,,0.00,meteohub,2013-08-02 09:02:00,
2013-08-02 02:08:00,52.7,49.3,29.87,NW,322,0.0,2.0,88,0.00,,,0.00,meteohub,2013-08-02 09:08:00,
2013-08-02 02:13:00,52.3,48.9,29.87,NW,322,0.0,2.0,88,0.00,,,0.00,meteohub,2013-08-02 09:13:00,
2013-08-02 02:18:00,52.2,49.1,29.87,NW,321,0.0,1.0,89,0.00,,,0.00,meteohub,2013-08-02 09:18:00,
2013-08-02 02:23:00,51.8,48.4,29.87,NW,322,0.0,1.0,88,0.00,,,0.00,meteohub,2013-08-02 09:23:00,
2013-08-02 02:28:00,51.6,48.6,29.87,NW,321,0.0,1.0,89,0.00,,,0.00,meteohub,2013-08-02 09:28:00,
2013-08-02 02:33:00,51.6,48.7,29.87,NW,321,0.0,1.0,90,0.00,,,0.00,meteohub,2013-08-02 09:33:00,
2013-08-02 02:38:00,51.8,48.9,29.87,NW,321,0.0,1.0,90,0.00,,,0.00,meteohub,2013-08-02 09:38:00,
2013-08-02 02:43:00,52.0,49.1,29.87,NW,322,0.0,1.0,90,0.00,,,0.00,meteohub,2013-08-02 09:43:00,
2013-08-02 02:48:00,52.0,49.1,29.87,NW,321,0.0,1.0,90,0.00,,,0.00,meteohub,2013-08-02 09:48:00,
2013-08-02 02:53:00,51.8,48.7,29.87,NW,322,0.0,1.0,89,0.00,,,0.00,meteohub,2013-08-02 09:53:00,
2013-08-02 02:58:00,51.6,48.6,29.87,NW,321,0.0,1.0,89,0.00,,,0.00,meteohub,2013-08-02 09:58:00,
2013-08-02 03:03:00,51.4,48.4,29.87,NW,322,0.0,1.0,89,0.00,,,0.00,meteohub,2013-08-02 10:03:00,
2013-08-02 03:08:00,51.3,48.2,29.87,NW,322,0.0,1.0,89,0.00,,,0.00,meteohub,2013-08-02 10:08:00,
2013-08-02 03:13:00,51.1,48.2,29.87,NW,321,0.0,1.0,90,0.00,,,0.00,meteohub,2013-08-02 10:13:00,
2013-08-02 03:19:00,51.3,48.4,29.87,NW,322,1.0,1.0,90,0.00,,,0.00,meteohub,2013-08-02 10:19:00,
2013-08-02 03:24:00,51.4,48.6,29.87,NW,323,0.0,1.0,90,0.00,,,0.00,meteohub,2013-08-02 10:24:00,
2013-08-02 03:29:00,51.3,48.4,29.87,NW,319,0.0,1.0,90,0.00,,,0.00,meteohub,2013-08-02 10:29:00,
2013-08-02 03:34:00,51.3,48.4,29.87,NW,319,0.0,1.0,90,0.00,,,0.00,meteohub,2013-08-02 10:34:00,
2013-08-02 03:39:00,50.9,48.0,29.87,NW,319,0.0,1.0,90,0.00,,,0.00,meteohub,2013-08-02 10:39:00,
2013-08-02 03:44:00,50.5,47.7,29.87,NW,319,0.0,1.0,90,0.00,,,0.00,meteohub,2013-08-02 10:44:00,
2013-08-02 03:49:00,50.5,48.0,29.87,NW,319,0.0,1.0,91,0.00,,,0.00,meteohub,2013-08-02 10:49:00,
2013-08-02 03:54:00,50.5,48.0,29.87,NW,319,0.0,1.0,91,0.00,,,0.00,meteohub,2013-08-02 10:54:00,
2013-08-02 03:59:00,50.5,47.7,29.87,NW,319,0.0,1.0,90,0.00,,,0.00,meteohub,2013-08-02 10:59:00,
2013-08-02 04:04:00,50.4,47.8,29.87,NW,319,0.0,1.0,91,0.00,,,0.00,meteohub,2013-08-02 11:04:00,
2013-08-02 04:09:00,50.2,47.7,29.87,NW,319,0.0,0.0,91,0.00,,,0.00,meteohub,2013-08-02 11:09:00,
2013-08-02 04:14:00,50.2,47.7,29.87,NW,319,0.0,0.0,91,0.00,,,0.00,meteohub,2013-08-02 11:14:00,
2013-08-02 04:19:00,50.2,47.7,29.87,NW,319,0.0,0.0,91,0.00,,,0.00,meteohub,2013-08-02 11:19:00,
2013-08-02 04:24:00,50.2,47.7,29.87,NW,319,0.0,1.0,91,0.00,,,0.00,meteohub,2013-08-02 11:24:00,
2013-08-02 04:29:00,50.0,47.5,29.87,NW,319,0.0,2.0,91,0.00,,,0.00,meteohub,2013-08-02 11:29:00,
2013-08-02 04:34:00,49.6,46.8,29.87,NW,319,0.0,2.0,90,0.00,,,0.00,meteohub,2013-08-02 11:34:00,
2013-08-02 04:39:00,49.5,46.9,29.86,NW,319,0.0,1.0,91,0.00,,,0.00,meteohub,2013-08-02 11:39:00,
2013-08-02 04:44:00,49.3,46.8,29.86,NW,319,0.0,1.0,91,0.00,,,0.00,meteohub,2013-08-02 11:44:00,
2013-08-02 04:49:00,48.9,46.4,29.86,NW,319,0.0,1.0,91,0.00,,,0.00,meteohub,2013-08-02 11:49:00,
2013-08-02 04:54:00,48.9,46.4,29.86,NW,319,0.0,1.0,91,0.00,,,0.00,meteohub,2013-08-02 11:54:00,
2013-08-02 05:00:00,48.6,46.0,29.86,NW,319,0.0,1.0,91,0.00,,,0.00,meteohub,2013-08-02 12:00:00,
2013-08-02 05:04:00,48.6,46.4,29.86,NW,319,0.0,1.0,92,0.00,,,0.00,meteohub,2013-08-02 12:04:00,
2013-08-02 05:10:00,48.6,46.4,29.86,NW,319,0.0,1.0,92,0.00,,,0.00,meteohub,2013-08-02 12:10:00,
2013-08-02 05:15:00,48.6,46.6,29.86,NW,319,0.0,0.0,93,0.00,,,0.00,meteohub,2013-08-02 12:15:00,
2013-08-02 05:22:00,48.4,46.2,29.87,NW,319,0.0,0.0,92,0.00,,,0.00,meteohub,2013-08-02 12:22:00,
2013-08-02 05:28:00,48.6,46.6,29.87,NW,319,0.0,1.0,93,0.00,,,0.00,meteohub,2013-08-02 12:28:00,
2013-08-02 05:33:00,48.7,46.8,29.87,NW,319,0.0,1.0,93,0.00,,,0.00,meteohub,2013-08-02 12:33:00,
2013-08-02 05:38:00,48.4,46.4,29.87,NW,319,0.0,1.0,93,0.00,,,0.00,meteohub,2013-08-02 12:38:00,
2013-08-02 05:43:00,48.6,46.6,29.87,NW,319,0.0,1.0,93,0.00,,,0.00,meteohub,2013-08-02 12:43:00,
2013-08-02 05:48:00,48.6,46.6,29.87,NW,319,0.0,0.0,93,0.00,,,0.00,meteohub,2013-08-02 12:48:00,
2013-08-02 05:53:00,48.4,46.2,29.87,NW,319,0.0,0.0,92,0.00,,,0.00,meteohub,2013-08-02 12:53:00,
2013-08-02 05:58:00,48.0,45.9,29.87,NW,319,0.0,0.0,92,0.00,,,0.00,meteohub,2013-08-02 12:58:00,
2013-08-02 06:04:00,48.2,46.2,29.87,NW,319,0.0,0.0,93,0.00,,,0.00,meteohub,2013-08-02 13:04:00,
2013-08-02 06:09:00,48.4,46.4,29.88,NW,319,0.0,0.0,93,0.00,,,0.00,meteohub,2013-08-02 13:09:00,
2013-08-02 06:14:00,48.4,46.4,29.88,NW,319,0.0,0.0,93,0.00,,,0.00,meteohub,2013-08-02 13:14:00,
2013-08-02 06:19:00,48.4,46.4,29.88,NW,319,0.0,0.0,93,0.00,,,0.00,meteohub,2013-08-02 13:19:00,
2013-08-02 06:24:00,48.4,46.4,29.88,NW,319,0.0,0.0,93,0.00,,,0.00,meteohub,2013-08-02 13:24:00,
2013-08-02 06:29:00,48.4,46.4,29.88,NW,319,0.0,0.0,93,0.00,,,0.00,meteohub,2013-08-02 13:29:00,
2013-08-02 06:34:00,48.4,46.4,29.88,NW,318,0.0,0.0,93,0.00,,,0.00,meteohub,2013-08-02 13:34:00,
2013-08-02 06:35:00,48.4,46.4,29.88,NW,318,0.0,0.0,93,0.00,,,0.00,meteohub,2013-08-02 13:35:00,
2013-08-02 06:41:00,48.4,46.4,29.89,NW,317,0.0,0.0,93,0.00,,,0.00,meteohub,2013-08-02 13:41:00,
2013-08-02 06:46:00,48.6,46.6,29.89,NW,317,0.0,0.0,93,0.00,,,0.00,meteohub,2013-08-02 13:46:00,
2013-08-02 06:51:00,48.7,46.6,29.89,NW,317,0.0,0.0,92,0.00,,,0.00,meteohub,2013-08-02 13:51:00,
2013-08-02 06:56:00,48.7,46.6,29.89,NW,318,0.0,0.0,92,0.00,,,0.00,meteohub,2013-08-02 13:56:00,
2013-08-02 07:01:00,48.7,46.2,29.89,NW,317,0.0,1.0,91,0.00,,,0.00,meteohub,2013-08-02 14:01:00,
2013-08-02 07:06:00,48.7,46.2,29.89,NW,317,0.0,1.0,91,0.00,,,0.00,meteohub,2013-08-02 14:06:00,
2013-08-02 07:12:00,49.6,47.5,29.89,NW,319,0.0,1.0,92,0.00,,,0.00,meteohub,2013-08-02 14:12:00,
2013-08-02 07:18:00,51.4,48.9,29.89,NW,319,0.0,0.0,91,0.00,,,0.00,meteohub,2013-08-02 14:18:00,
2013-08-02 07:23:00,52.5,49.5,29.90,NW,319,0.0,0.0,89,0.00,,,0.00,meteohub,2013-08-02 14:23:00,
2013-08-02 07:28:00,54.0,49.6,29.90,NW,321,0.0,0.0,85,0.00,,,0.00,meteohub,2013-08-02 14:28:00,
2013-08-02 07:33:00,54.1,49.1,29.90,NW,321,0.0,0.0,83,0.00,,,0.00,meteohub,2013-08-02 14:33:00,
2013-08-02 07:38:00,54.1,49.1,29.91,NW,319,1.0,0.0,83,0.00,,,0.00,meteohub,2013-08-02 14:38:00,
2013-08-02 07:43:00,54.1,49.1,29.91,NW,319,1.0,2.0,83,0.00,,,0.00,meteohub,2013-08-02 14:43:00,
2013-08-02 07:48:00,54.7,49.6,29.91,NW,315,0.0,3.0,83,0.00,,,0.00,meteohub,2013-08-02 14:48:00,
2013-08-02 07:53:00,54.9,49.5,29.91,NW,317,0.0,3.0,82,0.00,,,0.00,meteohub,2013-08-02 14:53:00,
2013-08-02 07:58:00,55.4,50.0,29.91,NW,313,0.0,3.0,82,0.00,,,0.00,meteohub,2013-08-02 14:58:00,
2013-08-02 08:03:00,56.5,50.4,29.91,NW,315,0.0,2.0,80,0.00,,,0.00,meteohub,2013-08-02 15:03:00,
2013-08-02 08:08:00,57.2,50.7,29.91,NW,317,0.0,2.0,79,0.00,,,0.00,meteohub,2013-08-02 15:08:00,
2013-08-02 08:13:00,58.3,51.1,29.91,NW,317,1.0,1.0,77,0.00,,,0.00,meteohub,2013-08-02 15:13:00,
2013-08-02 08:18:00,59.2,51.3,29.91,NW,326,0.0,1.0,75,0.00,,,0.00,meteohub,2013-08-02 15:18:00,
2013-08-02 08:23:00,60.1,51.8,29.91,West,264,1.0,1.0,74,0.00,,,0.00,meteohub,2013-08-02 15:23:00,
2013-08-02 08:28:00,60.3,51.6,29.91,South,173,1.0,2.0,73,0.00,,,0.00,meteohub,2013-08-02 15:28:00,
2013-08-02 08:34:00,61.0,52.3,29.91,WSW,242,0.0,2.0,73,0.00,,,0.00,meteohub,2013-08-02 15:34:00,
2013-08-02 08:39:00,61.9,52.0,29.91,WNW,300,1.0,2.0,70,0.00,,,0.00,meteohub,2013-08-02 15:39:00,
2013-08-02 08:44:00,61.3,51.8,29.91,WNW,290,0.0,2.0,71,0.00,,,0.00,meteohub,2013-08-02 15:44:00,
2013-08-02 08:49:00,62.8,53.2,29.91,WNW,290,0.0,2.0,71,0.00,,,0.00,meteohub,2013-08-02 15:49:00,
2013-08-02 08:54:00,63.0,51.8,29.91,WSW,239,0.0,2.0,67,0.00,,,0.00,meteohub,2013-08-02 15:54:00,
2013-08-02 08:59:00,63.7,52.9,29.91,SSW,200,2.0,2.0,68,0.00,,,0.00,meteohub,2013-08-02 15:59:00,
2013-08-02 09:04:00,63.9,52.7,29.91,SW,225,3.0,3.0,67,0.00,,,0.00,meteohub,2013-08-02 16:04:00,
2013-08-02 09:09:00,63.7,52.5,29.91,West,263,0.0,3.0,67,0.00,,,0.00,meteohub,2013-08-02 16:09:00,
2013-08-02 09:14:00,64.2,53.1,29.91,SSW,200,1.0,3.0,67,0.00,,,0.00,meteohub,2013-08-02 16:14:00,
2013-08-02 09:19:00,64.2,53.1,29.91,SW,221,0.0,3.0,67,0.00,,,0.00,meteohub,2013-08-02 16:19:00,
2013-08-02 09:24:00,64.9,52.9,29.91,SW,225,0.0,4.0,65,0.00,,,0.00,meteohub,2013-08-02 16:24:00,
2013-08-02 09:29:00,65.1,53.4,29.91,South,187,1.0,4.0,66,0.00,,,0.00,meteohub,2013-08-02 16:29:00,
2013-08-02 09:34:00,65.5,53.4,29.91,South,173,1.0,4.0,65,0.00,,,0.00,meteohub,2013-08-02 16:34:00,
2013-08-02 09:39:00,65.8,53.8,29.90,SSW,207,3.0,3.0,65,0.00,,,0.00,meteohub,2013-08-02 16:39:00,
2013-08-02 09:44:00,66.2,53.6,29.90,ESE,102,1.0,4.0,64,0.00,,,0.00,meteohub,2013-08-02 16:44:00,
2013-08-02 09:50:00,66.6,54.0,29.90,SE,126,1.0,4.0,64,0.00,,,0.00,meteohub,2013-08-02 16:50:00,
2013-08-02 09:55:00,66.7,53.8,29.90,SSW,202,1.0,5.0,63,0.00,,,0.00,meteohub,2013-08-02 16:55:00,
2013-08-02 10:00:00,67.3,54.3,29.90,SSW,194,3.0,5.0,63,0.00,,,0.00,meteohub,2013-08-02 17:00:00,
2013-08-02 10:05:00,67.8,54.3,29.90,ESE,102,1.0,5.0,62,0.00,,,0.00,meteohub,2013-08-02 17:05:00,
2013-08-02 10:10:00,68.7,54.7,29.90,South,190,1.0,4.0,61,0.00,,,0.00,meteohub,2013-08-02 17:10:00,
2013-08-02 10:15:00,69.1,54.7,29.90,SE,142,1.0,3.0,60,0.00,,,0.00,meteohub,2013-08-02 17:15:00,
2013-08-02 10:20:00,69.1,54.1,29.90,East,84,2.0,4.0,59,0.00,,,0.00,meteohub,2013-08-02 17:20:00,
2013-08-02 10:25:00,69.3,54.3,29.90,ESE,107,0.0,4.0,59,0.00,,,0.00,meteohub,2013-08-02 17:25:00,
2013-08-02 10:30:00,70.0,55.0,29.90,SE,138,3.0,4.0,59,0.00,,,0.00,meteohub,2013-08-02 17:30:00,
2013-08-02 10:35:00,70.2,54.7,29.90,SW,221,1.0,7.0,58,0.00,,,0.00,meteohub,2013-08-02 17:35:00,
2013-08-02 10:40:00,70.5,54.5,29.90,WSW,252,2.0,7.0,57,0.00,,,0.00,meteohub,2013-08-02 17:40:00,
2013-08-02 10:45:00,70.5,54.1,29.90,South,175,2.0,7.0,56,0.00,,,0.00,meteohub,2013-08-02 17:45:00,
2013-08-02 10:50:00,71.4,54.0,29.90,East,92,1.0,4.0,54,0.00,,,0.00,meteohub,2013-08-02 17:50:00,
2013-08-02 10:55:00,71.4,54.5,29.90,SSE,167,2.0,4.0,55,0.00,,,0.00,meteohub,2013-08-02 17:55:00,
2013-08-02 11:00:00,72.7,54.5,29.90,SE,128,2.0,4.0,53,0.00,,,0.00,meteohub,2013-08-02 18:00:00,
2013-08-02 11:06:00,73.2,54.5,29.90,WNW,294,0.0,4.0,52,0.00,,,0.00,meteohub,2013-08-02 18:06:00,
2013-08-02 11:10:00,73.8,55.0,29.89,ESE,116,3.0,4.0,52,0.00,,,0.00,meteohub,2013-08-02 18:10:00,
2013-08-02 11:16:00,74.1,54.9,29.89,West,271,1.0,5.0,51,0.00,,,0.00,meteohub,2013-08-02 18:16:00,
2013-08-02 11:20:00,74.7,54.9,29.89,SW,230,3.0,5.0,50,0.00,,,0.00,meteohub,2013-08-02 18:20:00,
2013-08-02 11:26:00,74.8,53.8,29.89,SSE,167,2.0,5.0,48,0.00,,,0.00,meteohub,2013-08-02 18:26:00,
2013-08-02 11:31:00,75.6,54.0,29.89,SSW,198,2.0,5.0,47,0.00,,,0.00,meteohub,2013-08-02 18:31:00,
2013-08-02 11:36:00,75.7,54.1,29.88,SE,133,1.0,5.0,47,0.00,,,0.00,meteohub,2013-08-02 18:36:00,
2013-08-02 11:41:00,76.3,54.5,29.88,WSW,257,2.0,5.0,47,0.00,,,0.00,meteohub,2013-08-02 18:41:00,
2013-08-02 11:46:00,76.6,53.8,29.88,SSW,196,2.0,5.0,45,0.00,,,0.00,meteohub,2013-08-02 18:46:00,
2013-08-02 11:51:00,77.0,54.7,29.88,West,263,1.0,6.0,46,0.00,,,0.00,meteohub,2013-08-02 18:51:00,
2013-08-02 11:56:00,76.5,54.7,29.88,WSW,239,3.0,6.0,47,0.00,,,0.00,meteohub,2013-08-02 18:56:00,
2013-08-02 12:01:00,76.8,53.8,29.88,SW,232,2.0,6.0,45,0.00,,,0.00,meteohub,2013-08-02 19:01:00,
2013-08-02 12:06:00,77.5,54.5,29.88,SW,214,4.0,7.0,45,0.00,,,0.00,meteohub,2013-08-02 19:06:00,
2013-08-02 12:11:00,77.5,54.5,29.88,ESE,115,2.0,5.0,45,0.00,,,0.00,meteohub,2013-08-02 19:11:00,
2013-08-02 12:16:00,78.3,55.2,29.88,West,274,2.0,5.0,45,0.00,,,0.00,meteohub,2013-08-02 19:16:00,
2013-08-02 12:22:00,78.4,54.7,29.87,SSE,164,2.0,5.0,44,0.00,,,0.00,meteohub,2013-08-02 19:22:00,
2013-08-02 12:27:00,79.2,54.7,29.87,SW,225,4.0,5.0,43,0.00,,,0.00,meteohub,2013-08-02 19:27:00,
2013-08-02 12:32:00,79.2,54.1,29.87,South,187,4.0,7.0,42,0.00,,,0.00,meteohub,2013-08-02 19:32:00,
2013-08-02 12:37:00,79.3,54.9,29.87,WSW,245,2.0,7.0,43,0.00,,,0.00,meteohub,2013-08-02 19:37:00,
2013-08-02 12:42:00,80.2,55.8,29.87,SSW,207,5.0,7.0,43,0.00,,,0.00,meteohub,2013-08-02 19:42:00,
2013-08-02 12:47:00,81.3,55.4,29.87,ESE,116,2.0,6.0,41,0.00,,,0.00,meteohub,2013-08-02 19:47:00,
2013-08-02 12:52:00,81.3,54.7,29.87,SSE,155,3.0,6.0,40,0.00,,,0.00,meteohub,2013-08-02 19:52:00,
2013-08-02 12:57:00,81.5,54.9,29.87,SW,227,3.0,6.0,40,0.00,,,0.00,meteohub,2013-08-02 19:57:00,
2013-08-02 13:02:00,80.8,54.1,29.87,SSW,210,1.0,6.0,40,0.00,,,0.00,meteohub,2013-08-02 20:02:00,
2013-08-02 13:07:00,81.3,54.0,29.86,SW,225,1.0,7.0,39,0.00,,,0.00,meteohub,2013-08-02 20:07:00,
2013-08-02 13:12:00,81.1,53.8,29.86,SSW,196,2.0,7.0,39,0.00,,,0.00,meteohub,2013-08-02 20:12:00,
2013-08-02 13:17:00,81.3,54.0,29.86,West,281,1.0,7.0,39,0.00,,,0.00,meteohub,2013-08-02 20:17:00,
2013-08-02 13:22:00,81.9,53.8,29.86,WNW,283,1.0,5.0,38,0.00,,,0.00,meteohub,2013-08-02 20:22:00,
2013-08-02 13:27:00,82.6,55.0,29.86,NW,309,3.0,5.0,39,0.00,,,0.00,meteohub,2013-08-02 20:27:00,
2013-08-02 13:32:00,82.9,54.0,29.86,NW,314,3.0,6.0,37,0.00,,,0.00,meteohub,2013-08-02 20:32:00,
2013-08-02 13:37:00,83.5,55.9,29.85,SW,219,3.0,6.0,39,0.00,,,0.00,meteohub,2013-08-02 20:37:00,
2013-08-02 13:42:00,83.1,54.9,29.85,South,178,3.0,11.0,38,0.00,,,0.00,meteohub,2013-08-02 20:42:00,
2013-08-02 13:48:00,83.7,56.8,29.85,SW,230,2.0,11.0,40,0.00,,,0.00,meteohub,2013-08-02 20:48:00,
2013-08-02 13:53:00,84.2,55.8,29.85,SW,236,6.0,7.0,38,0.00,,,0.00,meteohub,2013-08-02 20:53:00,
2013-08-02 13:58:00,83.3,55.8,29.85,WSW,248,2.0,13.0,39,0.00,,,0.00,meteohub,2013-08-02 20:58:00,
2013-08-02 14:03:00,83.3,56.5,29.85,WNW,283,2.0,13.0,40,0.00,,,0.00,meteohub,2013-08-02 21:03:00,
2013-08-02 14:08:00,84.0,57.0,29.85,SE,141,5.0,10.0,40,0.00,,,0.00,meteohub,2013-08-02 21:08:00,
2013-08-02 14:13:00,84.4,55.9,29.85,SE,136,9.0,9.0,38,0.00,,,0.00,meteohub,2013-08-02 21:13:00,
2013-08-02 14:18:00,83.7,56.1,29.85,West,263,5.0,11.0,39,0.00,,,0.00,meteohub,2013-08-02 21:18:00,
2013-08-02 14:23:00,83.5,55.9,29.85,SW,227,4.0,11.0,39,0.00,,,0.00,meteohub,2013-08-02 21:23:00,
2013-08-02 14:28:00,83.5,55.2,29.85,SSW,209,3.0,11.0,38,0.00,,,0.00,meteohub,2013-08-02 21:28:00,
2013-08-02 14:33:00,83.3,55.8,29.85,SSW,198,5.0,10.0,39,0.00,,,0.00,meteohub,2013-08-02 21:33:00,
2013-08-02 14:38:00,82.9,54.7,29.85,SW,214,4.0,10.0,38,0.00,,,0.00,meteohub,2013-08-02 21:38:00,
2013-08-02 14:43:00,82.6,54.3,29.85,SSW,202,7.0,9.0,38,0.00,,,0.00,meteohub,2013-08-02 21:43:00,
2013-08-02 14:48:00,82.8,55.2,29.85,SSW,211,4.0,9.0,39,0.00,,,0.00,meteohub,2013-08-02 21:48:00,
2013-08-02 14:53:00,82.4,55.0,29.85,South,173,4.0,10.0,39,0.00,,,0.00,meteohub,2013-08-02 21:53:00,
2013-08-02 14:58:00,82.9,54.7,29.85,South,172,5.0,10.0,38,0.00,,,0.00,meteohub,2013-08-02 21:58:00,
2013-08-02 15:03:00,82.6,54.3,29.85,SSE,161,4.0,10.0,38,0.00,,,0.00,meteohub,2013-08-02 22:03:00,
2013-08-02 15:08:00,82.2,53.4,29.84,South,175,6.0,10.0,37,0.00,,,0.00,meteohub,2013-08-02 22:08:00,
2013-08-02 15:13:00,82.2,54.9,29.84,SE,144,2.0,12.0,39,0.00,,,0.00,meteohub,2013-08-02 22:13:00,
2013-08-02 15:18:00,82.4,53.6,29.84,SW,233,3.0,12.0,37,0.00,,,0.00,meteohub,2013-08-02 22:18:00,
2013-08-02 15:23:00,82.0,54.0,29.84,SSW,198,3.0,11.0,38,0.00,,,0.00,meteohub,2013-08-02 22:23:00,
2013-08-02 15:28:00,81.7,53.6,29.84,SSE,155,6.0,11.0,38,0.00,,,0.00,meteohub,2013-08-02 22:28:00,
2013-08-02 15:34:00,82.4,54.3,29.84,WSW,245,2.0,12.0,38,0.00,,,0.00,meteohub,2013-08-02 22:34:00,
2013-08-02 15:39:00,81.9,54.5,29.84,South,186,4.0,12.0,39,0.00,,,0.00,meteohub,2013-08-02 22:39:00,
2013-08-02 15:44:00,81.9,54.5,29.84,West,281,4.0,10.0,39,0.00,,,0.00,meteohub,2013-08-02 22:44:00,
2013-08-02 15:49:00,82.0,54.7,29.84,SSW,209,3.0,10.0,39,0.00,,,0.00,meteohub,2013-08-02 22:49:00,
2013-08-02 15:54:00,81.3,54.7,29.83,WSW,238,9.0,9.0,40,0.00,,,0.00,meteohub,2013-08-02 22:54:00,
2013-08-02 15:59:00,81.0,54.3,29.83,SSE,148,6.0,12.0,40,0.00,,,0.00,meteohub,2013-08-02 22:59:00,
2013-08-02 16:04:00,80.6,54.7,29.83,West,265,2.0,12.0,41,0.00,,,0.00,meteohub,2013-08-02 23:04:00,
2013-08-02 16:10:00,80.4,54.0,29.83,WSW,240,7.0,12.0,40,0.00,,,0.00,meteohub,2013-08-02 23:10:00,
2013-08-02 16:15:00,80.6,54.0,29.83,WSW,240,6.0,12.0,40,0.00,,,0.00,meteohub,2013-08-02 23:15:00,
2013-08-02 16:19:00,80.8,54.9,29.83,WNW,299,9.0,10.0,41,0.00,,,0.00,meteohub,2013-08-02 23:19:00,
2013-08-02 16:25:00,80.2,53.8,29.83,WSW,252,2.0,10.0,40,0.00,,,0.00,meteohub,2013-08-02 23:25:00,
2013-08-02 16:30:00,80.8,54.1,29.83,East,84,1.0,12.0,40,0.00,,,0.00,meteohub,2013-08-02 23:30:00,
2013-08-02 16:35:00,81.1,53.8,29.83,SSE,156,4.0,12.0,39,0.00,,,0.00,meteohub,2013-08-02 23:35:00,
2013-08-02 16:40:00,81.0,54.3,29.83,WSW,248,2.0,12.0,40,0.00,,,0.00,meteohub,2013-08-02 23:40:00,
2013-08-02 16:45:00,80.4,52.5,29.83,SW,227,7.0,9.0,38,0.00,,,0.00,meteohub,2013-08-02 23:45:00,
2013-08-02 16:50:00,80.2,53.8,29.83,WSW,252,2.0,12.0,40,0.00,,,0.00,meteohub,2013-08-02 23:50:00,
2013-08-02 16:55:00,80.4,53.2,29.83,SE,126,4.0,12.0,39,0.00,,,0.00,meteohub,2013-08-02 23:55:00,
2013-08-02 17:00:00,81.1,53.1,29.83,SSW,193,3.0,10.0,38,0.00,,,0.00,meteohub,2013-08-03 00:00:00,
2013-08-02 17:05:00,80.8,52.9,29.83,NNE,17,3.0,10.0,38,0.00,,,0.00,meteohub,2013-08-03 00:05:00,
2013-08-02 17:10:00,80.6,52.7,29.83,SSE,153,2.0,10.0,38,0.00,,,0.00,meteohub,2013-08-03 00:10:00,
2013-08-02 17:15:00,80.6,52.0,29.83,SW,222,4.0,10.0,37,0.00,,,0.00,meteohub,2013-08-03 00:15:00,
2013-08-02 17:20:00,80.8,52.9,29.83,SW,222,10.0,10.0,38,0.00,,,0.00,meteohub,2013-08-03 00:20:00,
2013-08-02 17:26:00,80.4,52.5,29.83,WSW,240,6.0,10.0,38,0.00,,,0.00,meteohub,2013-08-03 00:26:00,
2013-08-02 17:31:00,79.9,52.0,29.83,WSW,245,4.0,10.0,38,0.00,,,0.00,meteohub,2013-08-03 00:31:00,
2013-08-02 17:36:00,80.1,52.9,29.83,SW,233,8.0,10.0,39,0.00,,,0.00,meteohub,2013-08-03 00:36:00,
2013-08-02 17:41:00,79.7,51.8,29.83,SSW,202,1.0,11.0,38,0.00,,,0.00,meteohub,2013-08-03 00:41:00,
2013-08-02 17:46:00,80.1,52.2,29.83,SW,225,3.0,11.0,38,0.00,,,0.00,meteohub,2013-08-03 00:46:00,
2013-08-02 17:51:00,80.1,51.4,29.82,SSW,211,1.0,11.0,37,0.00,,,0.00,meteohub,2013-08-03 00:51:00,
2013-08-02 17:56:00,79.9,51.3,29.82,South,190,2.0,8.0,37,0.00,,,0.00,meteohub,2013-08-03 00:56:00,
2013-08-02 18:01:00,80.1,51.4,29.82,SSE,158,1.0,7.0,37,0.00,,,0.00,meteohub,2013-08-03 01:01:00,
2013-08-02 18:06:00,80.1,50.7,29.82,WSW,257,4.0,7.0,36,0.00,,,0.00,meteohub,2013-08-03 01:06:00,
2013-08-02 18:11:00,80.1,52.2,29.82,SW,236,5.0,7.0,38,0.00,,,0.00,meteohub,2013-08-03 01:11:00,
2013-08-02 18:16:00,79.5,51.6,29.82,SW,217,3.0,7.0,38,0.00,,,0.00,meteohub,2013-08-03 01:16:00,
2013-08-02 18:21:00,79.9,52.0,29.81,South,184,1.0,7.0,38,0.00,,,0.00,meteohub,2013-08-03 01:21:00,
2013-08-02 18:27:00,80.8,52.2,29.81,SW,230,1.0,5.0,37,0.00,,,0.00,meteohub,2013-08-03 01:27:00,
2013-08-02 18:32:00,80.6,52.7,29.81,SSW,203,1.0,3.0,38,0.00,,,0.00,meteohub,2013-08-03 01:32:00,
2013-08-02 18:38:00,81.0,52.2,29.81,West,265,3.0,3.0,37,0.00,,,0.00,meteohub,2013-08-03 01:38:00,
2013-08-02 18:43:00,80.8,52.2,29.81,SW,230,1.0,3.0,37,0.00,,,0.00,meteohub,2013-08-03 01:43:00,
2013-08-02 18:48:00,80.8,52.9,29.81,West,279,1.0,3.0,38,0.00,,,0.00,meteohub,2013-08-03 01:48:00,
2013-08-02 18:53:00,80.4,52.5,29.81,West,269,1.0,3.0,38,0.00,,,0.00,meteohub,2013-08-03 01:53:00,
2013-08-02 18:58:00,80.2,52.3,29.81,SW,234,1.0,4.0,38,0.00,,,0.00,meteohub,2013-08-03 01:58:00,
2013-08-02 19:03:00,80.2,53.1,29.81,SW,227,4.0,4.0,39,0.00,,,0.00,meteohub,2013-08-03 02:03:00,
2013-08-02 19:08:00,79.5,52.3,29.81,SW,222,2.0,4.0,39,0.00,,,0.00,meteohub,2013-08-03 02:08:00,
2013-08-02 19:13:00,78.8,52.5,29.81,SW,227,1.0,4.0,40,0.00,,,0.00,meteohub,2013-08-03 02:13:00,
2013-08-02 19:18:00,78.4,53.4,29.81,WSW,253,1.0,4.0,42,0.00,,,0.00,meteohub,2013-08-03 02:18:00,
2013-08-02 19:23:00,78.1,53.8,29.81,WSW,241,1.0,4.0,43,0.00,,,0.00,meteohub,2013-08-03 02:23:00,
2013-08-02 19:28:00,77.7,54.1,29.81,SW,227,1.0,3.0,44,0.00,,,0.00,meteohub,2013-08-03 02:28:00,
2013-08-02 19:33:00,76.3,54.0,29.81,WNW,288,2.0,4.0,46,0.00,,,0.00,meteohub,2013-08-03 02:33:00,
2013-08-02 19:38:00,74.5,54.1,29.81,WNW,288,2.0,4.0,49,0.00,,,0.00,meteohub,2013-08-03 02:38:00,
2013-08-02 19:43:00,73.2,54.0,29.81,West,275,2.0,4.0,51,0.00,,,0.00,meteohub,2013-08-03 02:43:00,
2013-08-02 19:48:00,72.1,53.6,29.81,West,267,1.0,4.0,52,0.00,,,0.00,meteohub,2013-08-03 02:48:00,
2013-08-02 19:53:00,71.4,53.4,29.81,SW,223,1.0,3.0,53,0.00,,,0.00,meteohub,2013-08-03 02:53:00,
2013-08-02 19:58:00,70.9,53.4,29.81,SSW,207,0.0,3.0,54,0.00,,,0.00,meteohub,2013-08-03 02:58:00,
2013-08-02 20:03:00,70.3,53.4,29.81,SW,223,1.0,3.0,55,0.00,,,0.00,meteohub,2013-08-03 03:03:00,
2013-08-02 20:09:00,69.4,53.1,29.81,SW,225,1.0,3.0,56,0.00,,,0.00,meteohub,2013-08-03 03:09:00,
2013-08-02 20:14:00,68.9,53.1,29.81,South,191,1.0,3.0,57,0.00,,,0.00,meteohub,2013-08-03 03:14:00,
2013-08-02 20:19:00,68.4,53.1,29.81,SW,219,1.0,3.0,58,0.00,,,0.00,meteohub,2013-08-03 03:19:00,
2013-08-02 20:24:00,67.8,52.9,29.81,SW,214,1.0,4.0,59,0.00,,,0.00,meteohub,2013-08-03 03:24:00,
2013-08-02 20:29:00,66.9,53.1,29.81,SW,214,0.0,4.0,61,0.00,,,0.00,meteohub,2013-08-03 03:29:00,
2013-08-02 20:34:00,66.4,52.9,29.81,SW,229,0.0,4.0,62,0.00,,,0.00,meteohub,2013-08-03 03:34:00,
2013-08-02 20:39:00,65.8,52.5,29.82,SW,235,0.0,3.0,62,0.00,,,0.00,meteohub,2013-08-03 03:39:00,
2013-08-02 20:44:00,65.5,52.5,29.82,WSW,253,1.0,3.0,63,0.00,,,0.00,meteohub,2013-08-03 03:44:00,
2013-08-02 20:49:00,64.8,52.7,29.82,SW,227,1.0,4.0,65,0.00,,,0.00,meteohub,2013-08-03 03:49:00,
2013-08-02 20:54:00,64.2,52.2,29.83,SW,225,2.0,4.0,65,0.00,,,0.00,meteohub,2013-08-03 03:54:00,
2013-08-02 20:59:00,64.0,52.5,29.83,SW,225,2.0,4.0,66,0.00,,,0.00,meteohub,2013-08-03 03:59:00,
2013-08-02 21:01:00,64.0,52.5,29.83,SW,225,2.0,3.0,66,0.00,,,0.00,meteohub,2013-08-03 04:01:00,
2013-08-02 21:03:00,63.9,52.3,29.83,SW,225,0.0,3.0,66,0.00,,,0.00,meteohub,2013-08-03 04:03:00,
2013-08-02 21:05:00,63.7,52.5,29.83,South,172,0.0,3.0,67,0.00,,,0.00,meteohub,2013-08-03 04:05:00,
2013-08-02 21:06:00,63.7,52.5,29.83,SSW,202,1.0,3.0,67,0.00,,,0.00,meteohub,2013-08-03 04:06:00,
2013-08-02 21:11:00,63.3,52.2,29.83,South,182,1.0,2.0,67,0.00,,,0.00,meteohub,2013-08-03 04:11:00,
2013-08-02 21:16:00,63.0,52.2,29.83,SSE,159,1.0,2.0,68,0.00,,,0.00,meteohub,2013-08-03 04:16:00,
2013-08-02 21:21:00,62.6,52.0,29.84,SSE,149,1.0,3.0,68,0.00,,,0.00,meteohub,2013-08-03 04:21:00,
2013-08-02 21:26:00,62.2,52.0,29.84,SW,226,2.0,3.0,69,0.00,,,0.00,meteohub,2013-08-03 04:26:00,
2013-08-02 21:31:00,61.9,52.0,29.84,SW,223,2.0,3.0,70,0.00,,,0.00,meteohub,2013-08-03 04:31:00,
2013-08-02 21:36:00,61.5,52.0,29.84,SSW,202,0.0,2.0,71,0.00,,,0.00,meteohub,2013-08-03 04:36:00,
2013-08-02 21:41:00,61.2,51.6,29.84,SSW,210,0.0,2.0,71,0.00,,,0.00,meteohub,2013-08-03 04:41:00,
2013-08-02 21:46:00,61.0,52.0,29.84,SSE,160,0.0,2.0,72,0.00,,,0.00,meteohub,2013-08-03 04:46:00,
2013-08-02 21:51:00,60.6,51.6,29.84,South,176,2.0,2.0,72,0.00,,,0.00,meteohub,2013-08-03 04:51:00,
2013-08-02 21:56:00,60.4,51.8,29.84,SSE,168,0.0,2.0,73,0.00,,,0.00,meteohub,2013-08-03 04:56:00,
2013-08-02 22:01:00,60.1,51.8,29.84,SW,215,0.0,2.0,74,0.00,,,0.00,meteohub,2013-08-03 05:01:00,
2013-08-02 22:07:00,59.7,51.4,29.85,SW,217,1.0,2.0,74,0.00,,,0.00,meteohub,2013-08-03 05:07:00,
2013-08-02 22:12:00,59.5,51.6,29.85,SW,226,0.0,2.0,75,0.00,,,0.00,meteohub,2013-08-03 05:12:00,
2013-08-02 22:17:00,59.2,51.3,29.85,WSW,245,0.0,2.0,75,0.00,,,0.00,meteohub,2013-08-03 05:17:00,
2013-08-02 22:22:00,59.0,51.4,29.84,SSE,153,0.0,2.0,76,0.00,,,0.00,meteohub,2013-08-03 05:22:00,
2013-08-02 22:26:00,58.8,51.3,29.84,SSE,167,0.0,2.0,76,0.00,,,0.00,meteohub,2013-08-03 05:26:00,
2013-08-02 22:32:00,58.5,51.3,29.84,SSE,163,0.0,2.0,77,0.00,,,0.00,meteohub,2013-08-03 05:32:00,
2013-08-02 22:37:00,58.5,51.3,29.85,SSE,163,1.0,2.0,77,0.00,,,0.00,meteohub,2013-08-03 05:37:00,
2013-08-02 22:42:00,58.1,51.3,29.85,SSE,163,1.0,2.0,78,0.00,,,0.00,meteohub,2013-08-03 05:42:00,
2013-08-02 22:47:00,57.7,50.9,29.85,SSE,167,1.0,1.0,78,0.00,,,0.00,meteohub,2013-08-03 05:47:00,
2013-08-02 22:52:00,57.6,51.1,29.84,SSE,163,1.0,2.0,79,0.00,,,0.00,meteohub,2013-08-03 05:52:00,
2013-08-02 22:57:00,57.4,50.9,29.84,South,171,0.0,2.0,79,0.00,,,0.00,meteohub,2013-08-03 05:57:00,
2013-08-02 23:02:00,57.2,50.7,29.84,SSE,167,0.0,2.0,79,0.00,,,0.00,meteohub,2013-08-03 06:02:00,
2013-08-02 23:07:00,57.0,50.9,29.85,SSE,166,0.0,2.0,80,0.00,,,0.00,meteohub,2013-08-03 06:07:00,
2013-08-02 23:12:00,56.8,50.7,29.85,SSE,165,0.0,1.0,80,0.00,,,0.00,meteohub,2013-08-03 06:12:00,
2013-08-02 23:17:00,56.7,50.9,29.85,SSE,157,1.0,1.0,81,0.00,,,0.00,meteohub,2013-08-03 06:17:00,
2013-08-02 23:23:00,56.5,50.7,29.85,SSE,159,0.0,1.0,81,0.00,,,0.00,meteohub,2013-08-03 06:23:00,
2013-08-02 23:29:00,56.1,50.7,29.85,SSE,159,0.0,1.0,82,0.00,,,0.00,meteohub,2013-08-03 06:29:00,
2013-08-02 23:34:00,55.9,50.5,29.85,SSE,159,0.0,1.0,82,0.00,,,0.00,meteohub,2013-08-03 06:34:00,
2013-08-02 23:39:00,55.8,50.4,29.85,SSE,159,0.0,1.0,82,0.00,,,0.00,meteohub,2013-08-03 06:39:00,
2013-08-02 23:44:00,55.8,50.7,29.85,SSE,157,0.0,1.0,83,0.00,,,0.00,meteohub,2013-08-03 06:44:00,
2013-08-02 23:49:00,55.6,50.5,29.85,SSE,159,0.0,1.0,83,0.00,,,0.00,meteohub,2013-08-03 06:49:00,
2013-08-02 23:54:00,55.6,50.5,29.85,SSE,159,0.0,1.0,83,0.00,,,0.00,meteohub,2013-08-03 06:54:00,
2013-08-02 23:59:00,55.2,50.2,29.85,SSE,159,0.0,0.0,83,0.00,,,0.00,meteohub,2013-08-03 06:59:00,